This demonstration page uses our WeatherBlox Daily Observations layout. Learn more.

Left ArrowRight Arrow

44.89941, -97.11507

Hourly Observations for June 8, 2018

Temp ( °F °C ) Dew Point ( °F °C ) Humidity (%) Winds ( mph kmh ) Pressure ( in mb ) Visibility ( mi km ) Precip ( " mm )
12:53 am 00:53 Clear 63 17.2 54 12.2 73 73 SE 6 9 30.04 1017 10 16 0.00 0.00
1:53 am 01:53 Clear 62 16.7 55 12.8 78 78 SE 6 9 30.01 1016 10 16 0.00 0.00
2:53 am 02:53 Clear 60 15.6 55 12.8 84 84 SE 5 7 30.01 1016 10 16 0.00 0.00
3:53 am 03:53 Cloudy 62 16.7 56 13.3 80 80 SE 6 9 30.01 1016 10 16 0.00 0.00
4:53 am 04:53 Partly Cloudy 62 16.7 58 14.4 86 86 SSE 7 11 30.02 1017 10 16 0.00 0.00
5:53 am 05:53 Partly Cloudy 62 16.7 59 15 90 90 SE 6 9 30.01 1016 10 16 0.00 0.00
6:53 am 06:53 Cloudy 63 17.2 61 16.1 93 93 ESE 8 13 29.99 1016 10 16 0.00 0.00
7:53 am 07:53 Sunny 65 18.3 62 16.7 90 90 SE 14 22 29.93 1014 10 16 0.00 0.00
8:53 am 08:53 Sunny 68 20 63 17.2 84 84 SSE 15 24 29.93 1013 10 16 0.00 0.00
9:16 am 09:16 Mostly Cloudy 67 19.4 63 17.2 87 87 SE 13 20 29.94 1014 10 16 0.00 0.00
9:53 am 09:53 Cloudy 69 20.6 64 17.8 84 84 SSE 9 15 29.96 1015 10 16 0.00 0.00
10:06 am 10:06 Cloudy 70 21.1 64 17.8 82 82 S 12 19 29.91 1013 10 16 0.00 0.00
10:53 am 10:53 Mostly Cloudy 71 21.7 64 17.8 79 79 S 5 7 29.96 1015 10 16 0.00 0.00
11:07 am 11:07 Partly Cloudy 72 22.2 64 17.8 76 76 SE 7 11 29.91 1013 10 16 0.00 0.00
11:53 am 11:53 Sunny 75 23.9 65 18.3 71 71 VRB 7 11 29.96 1015 10 16 0.00 0.00
12:53 pm 12:53 Sunny 78 25.6 66 18.9 67 67 SW 7 11 29.96 1015 10 16 0.00 0.00
1:53 pm 13:53 Mostly Sunny 79 26.1 65 18.3 62 62 SSW 6 9 29.96 1014 10 16 0.00 0.00
2:53 pm 14:53 Sunny 82 27.8 64 17.8 55 55 SW 9 15 29.96 1014 10 16 0.00 0.00
3:53 pm 15:53 Sunny 84 28.9 62 16.7 48 48 S 9 15 29.94 1014 10 16 0.00 0.00
4:53 pm 16:53 Sunny 85 29.4 62 16.7 46 46 S 7 11 29.93 1014 10 16 0.00 0.00
5:53 pm 17:53 Sunny 84 28.9 63 17.2 49 49 SW 9 15 29.92 1013 10 16 0.00 0.00
6:53 pm 18:53 Sunny 83 28.3 61 16.1 48 48 SSW 7 11 29.91 1013 10 16 0.00 0.00
7:53 pm 19:53 Sunny 79 26.1 60 15.6 52 52 S 6 9 29.91 1013 10 16 0.00 0.00
8:53 pm 20:53 Sunny 78 25.6 59 15 52 52 SE 3 6 29.92 1013 10 16 0.00 0.00
9:53 pm 21:53 Clear 76 24.4 60 15.6 58 58 ESE 3 6 29.92 1013 10 16 0.00 0.00
10:53 pm 22:53 Clear 72 22.2 67 19.4 84 84 SSE 3 6 29.94 1014 10 16 0.00 0.00
11:53 pm 23:53 Clear 71 21.7 61 16.1 71 71 SE 5 7 29.91 1013 10 16 0.00 0.00

Powered by AerisWeather